Time,TemperatureF,DewpointF,PressureIn,WindDirection,WindDirectionDegrees,WindSpeedMPH,WindSpeedGustMPH,Humidity,HourlyPrecipIn,Conditions,Clouds,dailyrainin,SoftwareType,DateUTC
2013-01-30 00:01:00,12.0,8.0,30.26,ESE,102,1.0,0.0,82,-99.99,,,-99.99,,2013-01-30 07:01:00,
2013-01-30 00:11:00,12.0,8.0,30.26,ESE,102,1.0,0.0,82,-99.99,,,-99.99,,2013-01-30 07:11:00,
2013-01-30 00:21:00,12.0,8.0,30.27,WNW,291,0.0,0.0,82,-99.99,,,-99.99,,2013-01-30 07:21:00,
2013-01-30 00:31:00,12.0,7.0,30.27,WNW,290,0.0,0.0,81,-99.99,,,-99.99,,2013-01-30 07:31:00,
2013-01-30 00:41:00,12.0,7.0,30.27,WNW,290,0.0,0.0,81,-99.99,,,-99.99,,2013-01-30 07:41:00,
2013-01-30 00:52:00,13.0,8.0,30.28,SW,221,0.0,0.0,81,-99.99,,,-99.99,,2013-01-30 07:52:00,
2013-01-30 01:01:00,12.0,7.0,30.29,ENE,70,0.0,0.0,80,-99.99,,,-99.99,,2013-01-30 08:01:00,
2013-01-30 01:11:00,12.0,7.0,30.29,ENE,70,0.0,0.0,80,-99.99,,,-99.99,,2013-01-30 08:11:00,
2013-01-30 01:21:00,10.0,6.0,30.29,NNE,24,0.0,0.0,82,-99.99,,,-99.99,,2013-01-30 08:21:00,
2013-01-30 01:32:00,9.0,5.0,30.31,ENE,69,0.0,0.0,83,-99.99,,,-99.99,,2013-01-30 08:32:00,
2013-01-30 01:41:00,9.0,5.0,30.31,ENE,69,0.0,0.0,83,-99.99,,,-99.99,,2013-01-30 08:41:00,
2013-01-30 01:52:00,9.0,5.0,30.31,ENE,69,0.0,0.0,83,-99.99,,,-99.99,,2013-01-30 08:52:00,
2013-01-30 02:01:00,8.0,5.0,30.31,SSW,194,0.0,0.0,89,-99.99,,,-99.99,,2013-01-30 09:01:00,
2013-01-30 02:11:00,8.0,5.0,30.31,SSW,194,0.0,0.0,89,-99.99,,,-99.99,,2013-01-30 09:11:00,
2013-01-30 02:21:00,8.0,5.0,30.31,SSW,194,0.0,0.0,89,-99.99,,,-99.99,,2013-01-30 09:21:00,
2013-01-30 02:31:00,10.0,6.0,30.34,West,263,0.0,0.0,84,-99.99,,,-99.99,,2013-01-30 09:31:00,
2013-01-30 02:42:00,10.0,6.0,30.34,West,263,0.0,0.0,84,-99.99,,,-99.99,,2013-01-30 09:42:00,
2013-01-30 02:52:00,10.0,6.0,30.34,West,263,0.0,0.0,84,-99.99,,,-99.99,,2013-01-30 09:52:00,
2013-01-30 03:01:00,10.0,5.0,30.35,WSW,238,0.0,0.0,78,-99.99,,,-99.99,,2013-01-30 10:01:00,
2013-01-30 03:11:00,10.0,5.0,30.35,WSW,238,0.0,0.0,78,-99.99,,,-99.99,,2013-01-30 10:11:00,
2013-01-30 03:21:00,10.0,5.0,30.35,WSW,238,0.0,0.0,78,-99.99,,,-99.99,,2013-01-30 10:21:00,
2013-01-30 03:31:00,8.0,3.0,30.37,SW,215,1.0,0.0,78,-99.99,,,-99.99,,2013-01-30 10:31:00,
2013-01-30 03:41:00,8.0,3.0,30.37,SW,215,1.0,0.0,78,-99.99,,,-99.99,,2013-01-30 10:41:00,
2013-01-30 03:52:00,8.0,3.0,30.37,SW,215,1.0,0.0,78,-99.99,,,-99.99,,2013-01-30 10:52:00,
2013-01-30 04:02:00,7.0,2.0,30.38,SSW,207,0.0,0.0,78,-99.99,,,-99.99,,2013-01-30 11:02:00,
2013-01-30 04:11:00,7.0,2.0,30.38,SSW,207,0.0,0.0,78,-99.99,,,-99.99,,2013-01-30 11:11:00,
2013-01-30 04:21:00,7.0,2.0,30.39,SE,128,0.0,0.0,78,-99.99,,,-99.99,,2013-01-30 11:21:00,
2013-01-30 04:32:00,6.0,1.0,30.40,ESE,104,1.0,0.0,79,-99.99,,,-99.99,,2013-01-30 11:32:00,
2013-01-30 04:41:00,6.0,1.0,30.40,ESE,104,1.0,0.0,79,-99.99,,,-99.99,,2013-01-30 11:41:00,
2013-01-30 04:52:00,5.0,0.0,30.40,SSE,163,1.0,0.0,80,-99.99,,,-99.99,,2013-01-30 11:52:00,
2013-01-30 05:02:00,5.0,0.0,30.40,SSE,163,1.0,0.0,80,-99.99,,,-99.99,,2013-01-30 12:02:00,
2013-01-30 05:12:00,5.0,0.0,30.40,SSE,163,1.0,0.0,80,-99.99,,,-99.99,,2013-01-30 12:12:00,
2013-01-30 05:22:00,4.0,0.0,30.42,South,186,0.0,0.0,82,-99.99,,,-99.99,,2013-01-30 12:22:00,
2013-01-30 05:32:00,4.0,1.0,30.42,South,186,0.0,0.0,85,-99.99,,,-99.99,,2013-01-30 12:32:00,
2013-01-30 06:02:00,6.0,2.0,30.43,SE,142,0.0,0.0,84,-99.99,,,-99.99,,2013-01-30 13:02:00,
2013-01-30 06:12:00,6.0,2.0,30.43,SE,142,0.0,0.0,84,-99.99,,,-99.99,,2013-01-30 13:12:00,
2013-01-30 06:22:00,6.0,2.0,30.43,SE,142,0.0,0.0,84,-99.99,,,-99.99,,2013-01-30 13:22:00,
2013-01-30 06:32:00,7.0,3.0,30.45,SE,141,0.0,0.0,84,-99.99,,,-99.99,,2013-01-30 13:32:00,
2013-01-30 06:42:00,7.0,3.0,30.45,SE,141,0.0,0.0,84,-99.99,,,-99.99,,2013-01-30 13:42:00,
2013-01-30 06:53:00,7.0,3.0,30.45,SE,141,0.0,0.0,84,-99.99,,,-99.99,,2013-01-30 13:53:00,
2013-01-30 07:02:00,6.0,3.0,30.44,SE,141,0.0,0.0,86,-99.99,,,-99.99,,2013-01-30 14:02:00,
2013-01-30 07:11:00,6.0,3.0,30.44,SE,141,0.0,0.0,86,-99.99,,,-99.99,,2013-01-30 14:11:00,
2013-01-30 07:22:00,6.0,3.0,30.45,SE,141,0.0,0.0,86,-99.99,,,-99.99,,2013-01-30 14:22:00,
2013-01-30 07:32:00,6.0,3.0,30.46,SE,141,0.0,0.0,86,-99.99,,,-99.99,,2013-01-30 14:32:00,
2013-01-30 08:03:00,7.0,3.0,30.47,SE,143,0.0,0.0,85,-99.99,,,-99.99,,2013-01-30 15:03:00,
2013-01-30 08:12:00,7.0,3.0,30.47,SE,143,0.0,0.0,85,-99.99,,,-99.99,,2013-01-30 15:12:00,
2013-01-30 08:22:00,9.0,5.0,30.47,NW,317,0.0,0.0,84,-99.99,,,-99.99,,2013-01-30 15:22:00,
2013-01-30 08:32:00,10.0,6.0,30.47,NW,318,0.0,0.0,82,-99.99,,,-99.99,,2013-01-30 15:32:00,
2013-01-30 08:43:00,10.0,6.0,30.47,NW,318,0.0,0.0,82,-99.99,,,-99.99,,2013-01-30 15:43:00,
2013-01-30 08:52:00,10.0,6.0,30.47,NW,318,0.0,0.0,82,-99.99,,,-99.99,,2013-01-30 15:52:00,
2013-01-30 09:03:00,12.0,7.0,30.47,West,281,0.0,0.0,80,-99.99,,,-99.99,,2013-01-30 16:03:00,
2013-01-30 09:11:00,12.0,7.0,30.47,West,281,0.0,0.0,80,-99.99,,,-99.99,,2013-01-30 16:11:00,
2013-01-30 09:22:00,12.0,7.0,30.47,West,281,0.0,0.0,80,-99.99,,,-99.99,,2013-01-30 16:22:00,
2013-01-30 09:32:00,15.0,8.0,30.48,WSW,256,0.0,0.0,74,-99.99,,,-99.99,,2013-01-30 16:32:00,
2013-01-30 09:41:00,15.0,8.0,30.48,WSW,256,0.0,0.0,74,-99.99,,,-99.99,,2013-01-30 16:41:00,
2013-01-30 09:52:00,15.0,8.0,30.48,WSW,256,0.0,0.0,74,-99.99,,,-99.99,,2013-01-30 16:52:00,
2013-01-30 10:02:00,15.0,8.0,30.48,WSW,256,0.0,0.0,74,-99.99,,,-99.99,,2013-01-30 17:02:00,
2013-01-30 10:11:00,15.0,8.0,30.48,WSW,256,0.0,0.0,74,-99.99,,,-99.99,,2013-01-30 17:11:00,
2013-01-30 10:33:00,19.0,11.0,30.48,SW,228,0.0,0.0,69,-99.99,,,-99.99,,2013-01-30 17:33:00,
2013-01-30 10:43:00,19.0,11.0,30.48,SW,228,0.0,0.0,69,-99.99,,,-99.99,,2013-01-30 17:43:00,
2013-01-30 10:53:00,21.0,11.0,30.48,SE,132,0.0,0.0,65,-99.99,,,-99.99,,2013-01-30 17:53:00,
2013-01-30 11:02:00,21.0,10.0,30.47,SSW,200,2.0,0.0,63,-99.99,,,-99.99,,2013-01-30 18:02:00,
2013-01-30 11:11:00,21.0,10.0,30.47,SSW,200,2.0,0.0,63,-99.99,,,-99.99,,2013-01-30 18:11:00,
2013-01-30 11:22:00,21.0,10.0,30.47,SSW,200,2.0,0.0,63,-99.99,,,-99.99,,2013-01-30 18:22:00,
2013-01-30 11:32:00,21.0,10.0,30.47,SSW,200,2.0,0.0,63,-99.99,,,-99.99,,2013-01-30 18:32:00,
2013-01-30 11:42:00,21.0,10.0,30.47,SSW,200,2.0,0.0,63,-99.99,,,-99.99,,2013-01-30 18:42:00,
2013-01-30 11:53:00,25.0,12.0,30.47,SW,214,3.0,0.0,58,-99.99,,,-99.99,,2013-01-30 18:53:00,
2013-01-30 12:02:00,24.0,11.0,30.47,SSE,163,2.0,0.0,57,-99.99,,,-99.99,,2013-01-30 19:02:00,
2013-01-30 12:12:00,24.0,11.0,30.47,SSE,163,2.0,0.0,57,-99.99,,,-99.99,,2013-01-30 19:12:00,
2013-01-30 12:21:00,24.0,10.0,30.46,SE,139,3.0,0.0,55,-99.99,,,-99.99,,2013-01-30 19:21:00,
2013-01-30 12:32:00,25.0,12.0,30.45,SSE,153,1.0,0.0,57,-99.99,,,-99.99,,2013-01-30 19:32:00,
2013-01-30 12:42:00,25.0,12.0,30.45,SSE,153,1.0,0.0,57,-99.99,,,-99.99,,2013-01-30 19:42:00,
2013-01-30 12:52:00,26.0,10.0,30.45,ESE,110,0.0,0.0,51,-99.99,,,-99.99,,2013-01-30 19:52:00,
2013-01-30 13:02:00,28.0,12.0,30.44,WNW,284,0.0,0.0,50,-99.99,,,-99.99,,2013-01-30 20:02:00,
2013-01-30 13:11:00,28.0,12.0,30.44,WNW,284,0.0,0.0,50,-99.99,,,-99.99,,2013-01-30 20:11:00,
2013-01-30 13:21:00,27.0,11.0,30.44,NE,41,1.0,0.0,51,-99.99,,,-99.99,,2013-01-30 20:21:00,
2013-01-30 13:33:00,27.0,12.0,30.43,WSW,237,1.0,0.0,53,-99.99,,,-99.99,,2013-01-30 20:33:00,
2013-01-30 13:41:00,27.0,12.0,30.43,WSW,237,1.0,0.0,53,-99.99,,,-99.99,,2013-01-30 20:41:00,
2013-01-30 13:52:00,28.0,14.0,30.43,SE,139,4.0,0.0,55,-99.99,,,-99.99,,2013-01-30 20:52:00,
2013-01-30 14:03:00,27.0,13.0,30.44,SE,146,2.0,0.0,54,-99.99,,,-99.99,,2013-01-30 21:03:00,
2013-01-30 14:11:00,27.0,13.0,30.44,SE,146,2.0,0.0,54,-99.99,,,-99.99,,2013-01-30 21:11:00,
2013-01-30 14:22:00,27.0,15.0,30.43,SSW,194,2.0,0.0,59,-99.99,,,-99.99,,2013-01-30 21:22:00,
2013-01-30 14:31:00,27.0,14.0,30.43,West,274,0.0,0.0,57,-99.99,,,-99.99,,2013-01-30 21:31:00,
2013-01-30 14:42:00,27.0,14.0,30.43,West,274,0.0,0.0,57,-99.99,,,-99.99,,2013-01-30 21:42:00,
2013-01-30 14:52:00,27.0,15.0,30.42,WNW,296,1.0,0.0,60,-99.99,,,-99.99,,2013-01-30 21:52:00,
2013-01-30 15:02:00,27.0,16.0,30.42,West,269,1.0,0.0,63,-99.99,,,-99.99,,2013-01-30 22:02:00,
2013-01-30 15:11:00,27.0,16.0,30.42,West,269,1.0,0.0,63,-99.99,,,-99.99,,2013-01-30 22:11:00,
2013-01-30 15:21:00,27.0,16.0,30.42,West,269,1.0,0.0,63,-99.99,,,-99.99,,2013-01-30 22:21:00,
2013-01-30 15:32:00,26.0,15.0,30.42,NE,41,2.0,0.0,62,-99.99,,,-99.99,,2013-01-30 22:32:00,
2013-01-30 15:42:00,26.0,15.0,30.42,NE,41,2.0,0.0,62,-99.99,,,-99.99,,2013-01-30 22:42:00,
2013-01-30 15:52:00,26.0,16.0,30.42,NE,46,2.0,0.0,64,-99.99,,,-99.99,,2013-01-30 22:52:00,
2013-01-30 16:01:00,26.0,16.0,30.42,West,276,0.0,0.0,64,-99.99,,,-99.99,,2013-01-30 23:01:00,
2013-01-30 16:11:00,26.0,16.0,30.42,West,276,0.0,0.0,64,-99.99,,,-99.99,,2013-01-30 23:11:00,
2013-01-30 16:22:00,26.0,16.0,30.42,West,276,0.0,0.0,64,-99.99,,,-99.99,,2013-01-30 23:22:00,
2013-01-30 16:32:00,26.0,17.0,30.42,South,177,2.0,0.0,69,-99.99,,,-99.99,,2013-01-30 23:32:00,
2013-01-30 16:42:00,26.0,17.0,30.42,South,177,2.0,0.0,69,-99.99,,,-99.99,,2013-01-30 23:42:00,
2013-01-30 16:52:00,26.0,18.0,30.42,NE,53,2.0,0.0,71,-99.99,,,-99.99,,2013-01-30 23:52:00,
2013-01-30 17:01:00,26.0,18.0,30.42,NE,53,2.0,0.0,71,-99.99,,,-99.99,,2013-01-31 00:01:00,
2013-01-30 17:11:00,26.0,18.0,30.42,NE,53,2.0,0.0,71,-99.99,,,-99.99,,2013-01-31 00:11:00,
2013-01-30 17:21:00,26.0,18.0,30.42,NE,53,2.0,0.0,71,-99.99,,,-99.99,,2013-01-31 00:21:00,
2013-01-30 17:32:00,26.0,19.0,30.42,NE,41,0.0,0.0,73,-99.99,,,-99.99,,2013-01-31 00:32:00,
2013-01-30 17:42:00,26.0,19.0,30.42,NE,41,0.0,0.0,73,-99.99,,,-99.99,,2013-01-31 00:42:00,
2013-01-30 17:53:00,26.0,19.0,30.42,North,359,0.0,0.0,75,-99.99,,,-99.99,,2013-01-31 00:53:00,
2013-01-30 18:01:00,25.0,19.0,30.42,East,101,1.0,0.0,76,-99.99,,,-99.99,,2013-01-31 01:01:00,
2013-01-30 18:11:00,25.0,19.0,30.42,East,101,1.0,0.0,76,-99.99,,,-99.99,,2013-01-31 01:11:00,
2013-01-30 18:21:00,25.0,19.0,30.42,East,101,1.0,0.0,76,-99.99,,,-99.99,,2013-01-31 01:21:00,
2013-01-30 18:31:00,26.0,19.0,30.42,East,86,2.0,0.0,76,-99.99,,,-99.99,,2013-01-31 01:31:00,
2013-01-30 18:41:00,26.0,19.0,30.42,East,86,2.0,0.0,76,-99.99,,,-99.99,,2013-01-31 01:41:00,
2013-01-30 18:52:00,26.0,19.0,30.43,ENE,72,1.0,0.0,76,-99.99,,,-99.99,,2013-01-31 01:52:00,
2013-01-30 19:01:00,26.0,19.0,30.43,ENE,72,1.0,0.0,76,-99.99,,,-99.99,,2013-01-31 02:01:00,
2013-01-30 19:11:00,26.0,19.0,30.43,ENE,72,1.0,0.0,76,-99.99,,,-99.99,,2013-01-31 02:11:00,
2013-01-30 19:21:00,25.0,20.0,30.43,NE,44,4.0,0.0,81,-99.99,,,-99.99,,2013-01-31 02:21:00,
2013-01-30 19:32:00,25.0,20.0,30.43,ENE,78,1.0,0.0,82,-99.99,,,-99.99,,2013-01-31 02:32:00,
2013-01-30 19:41:00,25.0,20.0,30.43,ENE,78,1.0,0.0,82,-99.99,,,-99.99,,2013-01-31 02:41:00,
2013-01-30 19:51:00,25.0,20.0,30.43,ENE,78,1.0,0.0,82,-99.99,,,-99.99,,2013-01-31 02:51:00,
2013-01-30 20:02:00,25.0,20.0,30.44,SW,226,1.0,0.0,82,-99.99,,,-99.99,,2013-01-31 03:02:00,
2013-01-30 20:11:00,25.0,20.0,30.44,SW,226,1.0,0.0,82,-99.99,,,-99.99,,2013-01-31 03:11:00,
2013-01-30 20:21:00,25.0,21.0,30.45,East,87,1.0,0.0,83,-99.99,,,-99.99,,2013-01-31 03:21:00,
2013-01-30 20:32:00,24.0,19.0,30.45,SSW,211,0.0,0.0,82,-99.99,,,-99.99,,2013-01-31 03:32:00,
2013-01-30 20:41:00,24.0,19.0,30.45,SSW,211,0.0,0.0,82,-99.99,,,-99.99,,2013-01-31 03:41:00,
2013-01-30 20:51:00,24.0,20.0,30.44,SE,144,2.0,0.0,83,-99.99,,,-99.99,,2013-01-31 03:51:00,
2013-01-30 21:02:00,24.0,20.0,30.45,ENE,72,0.0,0.0,84,-99.99,,,-99.99,,2013-01-31 04:02:00,
2013-01-30 21:11:00,24.0,20.0,30.45,ENE,72,0.0,0.0,84,-99.99,,,-99.99,,2013-01-31 04:11:00,
2013-01-30 21:22:00,24.0,20.0,30.45,NW,315,0.0,0.0,84,-99.99,,,-99.99,,2013-01-31 04:22:00,
2013-01-30 21:31:00,24.0,20.0,30.45,West,263,0.0,0.0,85,-99.99,,,-99.99,,2013-01-31 04:31:00,
2013-01-30 21:41:00,24.0,20.0,30.45,West,263,0.0,0.0,85,-99.99,,,-99.99,,2013-01-31 04:41:00,
2013-01-30 21:51:00,24.0,20.0,30.45,West,264,2.0,0.0,86,-99.99,,,-99.99,,2013-01-31 04:51:00,
2013-01-30 22:03:00,24.0,20.0,30.45,West,264,2.0,0.0,86,-99.99,,,-99.99,,2013-01-31 05:03:00,
2013-01-30 22:11:00,24.0,20.0,30.45,West,264,2.0,0.0,86,-99.99,,,-99.99,,2013-01-31 05:11:00,
2013-01-30 22:21:00,24.0,20.0,30.44,SW,219,1.0,0.0,84,-99.99,,,-99.99,,2013-01-31 05:21:00,
2013-01-30 22:31:00,24.0,20.0,30.44,SW,219,1.0,0.0,84,-99.99,,,-99.99,,2013-01-31 05:31:00,
2013-01-30 22:41:00,24.0,20.0,30.44,SW,225,0.0,0.0,85,-99.99,,,-99.99,,2013-01-31 05:41:00,
2013-01-30 22:51:00,24.0,20.0,30.44,SW,225,0.0,0.0,85,-99.99,,,-99.99,,2013-01-31 05:51:00,
2013-01-30 23:01:00,24.0,20.0,30.44,SW,225,0.0,0.0,85,-99.99,,,-99.99,,2013-01-31 06:01:00,
2013-01-30 23:10:00,24.0,20.0,30.44,SW,225,0.0,0.0,85,-99.99,,,-99.99,,2013-01-31 06:10:00,